This is the latest recevied weather packets stored in our database for station/object IU7URP-13. If no packets are shown the sender has not sent any weather packets the latest 10 day(s).
| Time | Temp. | Humidity | Pressure | Rain* | Wind** | Luminosity | Snow |
|---|---|---|---|---|---|---|---|
| 1777553480 | 16.67° C | 99% | 1020.4 hPa | - | - | - | - |
| 1777552279 | 15.56° C | 99% | 1020.5 hPa | - | - | - | - |
| 1777551075 | 15° C | 99% | 1020.5 hPa | - | - | - | - |
| 1777549873 | 17.22° C | 99% | 1020.5 hPa | - | - | - | - |
| 1777548671 | 16.67° C | 99% | 1020.6 hPa | - | - | - | - |
| 1777547470 | 16.11° C | 99% | 1020.6 hPa | - | - | - | - |
| 1777546269 | 16.11° C | 99% | 1020.4 hPa | - | - | - | - |
| 1777545067 | 16.11° C | 99% | 1020.4 hPa | - | - | - | - |
| 1777543866 | 16.67° C | 99% | 1020.1 hPa | - | - | - | - |
| 1777542664 | 17.22° C | 99% | 1020.1 hPa | - | - | - | - |
| 1777541463 | 17.22° C | 99% | 1020.1 hPa | - | - | - | - |
| 1777540262 | 17.22° C | 99% | 1019.9 hPa | - | - | - | - |
| 1777539060 | 17.22° C | 99% | 1019.6 hPa | - | - | - | - |
| 1777537859 | 17.22° C | 99% | 1019.9 hPa | - | - | - | - |
| 1777536658 | 17.22° C | 99% | 1019.9 hPa | - | - | - | - |
| 1777535457 | 17.22° C | 99% | 1019.8 hPa | - | - | - | - |
| 1777534255 | 17.78° C | 99% | 1019.5 hPa | - | - | - | - |
| 1777533054 | 17.78° C | 99% | 1019.1 hPa | - | - | - | - |
| 1777531853 | 17.78° C | 99% | 1019.4 hPa | - | - | - | - |
| 1777530651 | 17.78° C | 99% | 1019.7 hPa | - | - | - | - |
| 1777529449 | 17.22° C | 99% | 1019.6 hPa | - | - | - | - |
| 1777528248 | 16.67° C | 99% | 1019.4 hPa | - | - | - | - |
| 1777527047 | 16.67° C | 99% | 1019.3 hPa | - | - | - | - |
| 1777525845 | 17.22° C | 99% | 1019 hPa | - | - | - | - |
| 1777524644 | 16.11° C | 99% | 1019.1 hPa | - | - | - | - |
* Rain since midnight (hover to see other rain measurements)
** Current wind speed in m/s (hover to see current wind gust speed)